Regional Weather Roundup
Issued by NWS Huntsville, AL

Home | Current Version | Previous Version | Text Only | Print | Product List | Glossary On
Versions: 1 2 3 4 5 6 7 8 9 10 11 12 13 14 15 16 17 18 19 20 21 22 23 24 25 26 27 28
000
ASUS44 KHUN 291010
RWRHUN

WEATHER ROUNDUP FOR THE TENNESSEE VALLEY
NATIONAL WEATHER SERVICE HUNTSVILLE AL
500 AM CDT FRI APR 29 2016

ALZ001>004-291100-
NORTHWEST ALABAMA

CITY           SKY/WX    TMP DP  RH WIND       PRES   REMARKS
COURTLAND HCN    N/A     57 N/A N/A CALM        N/A
RUSSELLVILLE     N/A     52 N/A N/A MISG        N/A
SHOALS AIRPORT CLOUDY    58  56  93 CALM      30.00S
SHOALS TVA RES   N/A     55 N/A N/A MISG        N/A
$$

ALZ005>007-016-291100-
NORTH CENTRAL ALABAMA

CITY           SKY/WX    TMP DP  RH WIND       PRES   REMARKS
CULLMAN AG STN   N/A     55 N/A N/A CALM        N/A
DECATUR AP     CLOUDY    56  55  97 CALM      30.00S
HUNTSVILLE AP  CLOUDY    57  53  86 CALM      30.00R
HUN NWS/UAH      N/A     61  53  74 SW2         N/A
MERIDIANVILLE  PTCLDY    52  50  93 CALM      30.01R
REDSTONE ARSN  CLOUDY    57  53  86 W1        29.99R
VINEMONT AP    FAIR      54  54  97 CALM      30.03R
$$

ALZ008>010-291100-
NORTHEAST ALABAMA

CITY           SKY/WX    TMP DP  RH WIND       PRES   REMARKS
ALBERTVILLE    CLEAR     57  57 100 E3        30.01R
FORT PAYNE     CLEAR     54  50  87 CALM      30.01R
SCOTTSBORO AP  CLEAR     55  55 100 CALM      30.02R
SCOTTSBORO HCN   N/A     54 N/A N/A MISG        N/A
VALLEY HEAD      N/A     52 N/A N/A MISG        N/A
$$

TNZ076-096-097-291100-
SOUTHEASTERN MIDDLE TENNESSEE

CITY           SKY/WX    TMP DP  RH WIND       PRES   REMARKS
TULLAHOMA      CLEAR     52  52 100 CALM      30.02S
WINCHESTER     CLEAR     50  48  93 CALM      30.02S
$$

...SURROUNDING SITES...

CITY           SKY/WX    TMP DP  RH WIND       PRES   REMARKS
ATLANTA        CLEAR     64  57  78 SW3       30.00S
ANNISTON       CLEAR     59  57  93 CALM      30.02R
BIRMINGHAM     CLEAR     63  60  90 CALM      30.02R
CHATTANOOGA    PTCLDY    60  55  83 CALM      30.02R
DALTON         CLEAR     54  54 100 CALM      30.01R
GADSDEN        CLEAR     56  55  97 CALM      30.02R
GOLDEN TRNGL   CLEAR     64  61  88 CALM      29.96R
HALEYVILLE     FAIR      56  55  97 CALM      30.02S
JACKSON TN     CLOUDY    55  52  89 CALM      29.98R
MEMPHIS        CLOUDY    67  50  54 CALM      29.96R
NASHVILLE      CLOUDY    56  52  86 S3        30.01R
OXFORD MS      FAIR      63  54  72 CALM      29.98R
ROME           CLEAR     55  53  93 CALM      30.00R
SAVANNAH       CLEAR     54  54 100 CALM      29.98R
TUPELO         CLOUDY    60  57  89 N6        29.96S
TUSCALOOSA     CLEAR     61  61 100 CALM      29.98S
$$

...GULF COAST WEATHER...

CITY           SKY/WX    TMP DP  RH WIND       PRES   REMARKS
GULFPORT       MOCLDY    71  69  93 E7        29.93S
PASCAGOULA     CLEAR     65  64  97 CALM      29.95S
MOBILE         PTCLDY    66  66 100 E5        29.97S
GULF SHORES    SUNNY     61  61 100 E3        29.96F
DESTIN         PTCLDY    69  68  96 CALM      29.98R FOG
PANAMA CITY    FOG       68  68  99 CALM      29.98S VSB 1/4
APPALACHICOLA  FOG       70  70 100 CALM      29.98S VSB 1/4
$$





USA.gov is the U.S. government's official web portal to all federal, state and local government web resources and services.